Location: Unspecified
(0.0000°N, 0.0000°E)
Time: 16:44:05
(UTC+00:00)

X-37B - Pass Details

Date: 04 December 2021
Orbit: 334 x 337 km, 45.0° (Epoch: 11 January)

Event Time Altitude Azimuth Distance (km) Brightness Sun altitude
Exits shadow 04:44:51 19° 230° (SW) 889 2.1 -15.1°
Maximum altitude 04:44:56 19° 227° (SW) 889 2.2 -15.1°
Drops below altitude 10° 04:47:03 10° 179° (S) 1,267 3.5 -14.6°
Sets 04:49:24 0° 160° (SSE) 2,106 5.0 -14.0°
